Regional Weather Roundup
Issued by NWS

Home | Current Version | Previous Version | Text Only | Print | Product List | Glossary Off
Versions: 1 2 3 4 5 6 7 8 9 10 11 12 13 14 15 16 17 18 19 20 21 22 23 24 25 26 27 28 29 30 31 32 33 34 35 36 37 38 39 40 41 42 43 44 45 46 47 48 49 50

000
ASUS43 KDTX 292310
RWRMI
MICHIGAN HOURLY REGIONAL WEATHER ROUNDUP
NATIONAL WEATHER SERVICE DETROIT/PONTIAC MI
700 PM EDT FRI AUG 29 2014

NOTE: "FAIR" INDICATES FEW OR NO CLOUDS BELOW 12,000 FEET WITH NO
SIGNIFICANT WEATHER AND/OR OBSTRUCTION TO VISIBILITY.

MIZ047>049-052>055-059>063-066>070-074>076-081>083-300000-
SOUTHEAST LOWER MICHIGAN

CITY           SKY/WX    TMP DP  RH WIND       PRES   REMARKS
ADRIAN         SUNNY     77  64  64 SE10      30.03F
ALMA           CLOUDY    73  65  78 SE5       29.98F
ANN ARBOR      MOSUNNY   75  61  61 SE7       30.03F
BAD AXE        CLOUDY    69  57  65 S10       30.03F
CARO           CLOUDY    70  60  70 SE10      30.01F
DETROIT CITY   SUNNY     75  54  47 E9        30.05F
DETROIT        MOSUNNY   75  59  57 E7        30.05F
FLINT          PTSUNNY   74  54  49 SE8       30.02F
GROSSE ILE     SUNNY     73  63  68 E6        30.04F
HILLSDALE      MOSUNNY   80  65  60 SE7       30.02F
HOWELL         PTSUNNY   73  62  68 SE10      30.02F

CITY           SKY/WX    TMP DP  RH WIND       PRES   REMARKS
JACKSON        MOSUNNY   77  65  66 SE7       30.01F
LAMBERTVILLE   MOSUNNY   73  63  68 E7        30.03F
LANSING        CLOUDY    76  63  64 SE9       29.99F
LAPEER         FAIR      70  56  60 S7        30.03F
MASON          PTSUNNY   73  64  74 SE6       29.99F
MONROE         MOSUNNY   73  63  68 SE8       30.02F
MT. CLEMENS    MOSUNNY   71  56  57 SE10      30.05F
PONTIAC        PTSUNNY   74  48  39 SE10      30.03F
PORT HOPE        N/A     70  58  65 S5        30.01F
PORT HURON     MOSUNNY   72  54  53 S5        30.06F
TRI CITIES     CLOUDY    73  57  57 S10       30.00F
TROY           MOSUNNY   77  45  32 SE6       30.06F
SAGINAW HB     CLOUDY    72  55  56 S7        30.00F
$$
MIZ043>046-050>051-056>058-064>065-071>073-077>080-300000-
SOUTHWEST LOWER MICHIGAN

CITY           SKY/WX    TMP DP  RH WIND       PRES   REMARKS
BATTLE CREEK   LGT RAIN  78  69  73 S6        29.99F
BENTON HARBOR  CLOUDY    77  70  79 SE12      29.93F
BIG RAPIDS     PTSUNNY   72  68  88 SE10      29.95F
COLDWATER      PTSUNNY   80  67  63 SE5       29.99F
FREMONT        FAIR      73  67  81 SE6       29.94S
HOLLAND        CLOUDY    77  71  82 SE7       29.94F
GRAND RAPIDS   CLOUDY    74  72  93 SE9       29.95F
IONIA          LGT RAIN  72  68  88 S8        29.96F
KALAMAZOO      CLOUDY    77  70  79 S8        29.97F
LUDINGTON      MOSUNNY   77  70  80 S10G20    29.90S
MARSHALL       PTSUNNY   77  67  70 S6        29.99F
MOUNT PLEASANT PTSUNNY   73  64  71 SE7       29.97F
MUSKEGON       PTSUNNY   76  69  79 SE8G17    29.93F
SOUTH HAVEN    CLOUDY    77  73  88 SE5       29.93F
$$
MIZ016>042-300000-
NORTHERN LOWER MICHIGAN

CITY           SKY/WX    TMP DP  RH WIND       PRES   REMARKS
ALPENA         PTSUNNY   69  61  75 S9        29.96F
BEAVER ISLAND  CLOUDY    67  65  94 E6        29.88F
BELLAIRE       SUNNY     74  62  65 S9        29.90S
CADILLAC       MOSUNNY   70  65  83 SE13      29.95F
CHARLEVOIX     SUNNY     75  67  75 S7        29.92S
FRANKFORT      CLOUDY    77  67  69 S10       29.87F
GAYLORD        MOSUNNY   69  61  75 S17G24    29.95S
GRAYLING       MOSUNNY   71  63  76 S12       29.97S
HARBOR SPRINGS MOSUNNY   75  67  75 CALM      29.89F
HOUGHTON LAKE  PTSUNNY   69  61  75 S10       29.98S
MANISTEE       MOSUNNY   75  66  73 S5G17     29.90S
OSCODA         CLOUDY    70  61  73 S8        29.98F
PELLSTON       MOSUNNY   74  66  76 SE6       29.90F
TRAVERSE CITY  PTSUNNY   76  64  66 SE10G18   29.88F
$$
MIZ007>008-015-300000-
EASTERN UPPER MICHIGAN

CITY           SKY/WX    TMP DP  RH WIND       PRES   REMARKS
KINROSS        CLOUDY    61  61 100 SE17      29.90F
MACKINAC ISLAN MOSUNNY   63  63  99 E8        29.89F
NEWBERRY       CLOUDY    62  61  98 S6        29.88F FOG
S. S. MARIE    CLOUDY    60  58  92 SE9       29.92F
MUNISING         N/A     70  65  84 S9        29.81S
$$
MIZ004>006-011>014-085-300000-
CENTRAL UPPER MICHIGAN

CITY           SKY/WX    TMP DP  RH WIND       PRES   REMARKS
MANISTIQUE     CLOUDY    64  64  97 SE8       29.86F
ESCANABA       CLOUDY    68  63  83 S7        29.83F
MENOMINEE      SUNNY     72  66  83 S9G16     29.81F
SAWYER-GWINN   CLOUDY    66  66 100 S10       29.82S FOG
$$
MIZ001>003-009>011-084-300000-
WESTERN UPPER MICHIGAN

CITY           SKY/WX    TMP DP  RH WIND       PRES   REMARKS
IRON MOUNTAIN  CLOUDY    70  66  87 S6        29.82S FOG
HOUGHTON       LGT RAIN  65  63  93 SE3       29.78S FOG
COPPER HARBOR    N/A     63  60  90 W7        29.77S
$$

ABBREVIATIONS USED IN REMARKS
   TC - TEMPERATURE IN CELSIUS
  WCI - WIND CHILL INDEX
   HX - HEAT INDEX
  VSB - VISIBILITY




USA.gov is the U.S. government's official web portal to all federal, state and local government web resources and services.